Location: Hopewell Observatory
(38.8698°N, 77.6988°W)
Time: 12:45:09
(UTC-05:00)

Amateur Radio Satellites - All Passes

Search period start: 21 November 2014 12:15
Search period end: 22 November 2014 12:15
Location: Hopewell Observatory, 38.8698°N, 77.6988°W

Satellite Date Start Highest point End Downlink Frequencies (MHz)
Time Altitude Azimuth
SO-50 21 Nov 12:19:16 12:21:45 14° 40° (NE) 12:24:15 436.795
CUBEBUG 1 21 Nov 12:21:24 12:25:03 26° 291° (WNW) 12:28:40 437.445
SPROUT 21 Nov 12:30:04 12:34:23 87° 104° (ESE) 12:38:39 437.525
ITUPSAT 1 21 Nov 12:35:35 12:38:24 15° 92° (E) 12:41:12 437.325
TISAT 1 21 Nov 12:36:48 12:41:00 67° 285° (WNW) 12:45:09 437.305
ESTCUBE 1 21 Nov 12:42:36 12:45:31 17° 295° (WNW) 12:48:26 437.505/2401.250
CUSAT 1 21 Nov 12:44:28 12:45:25 11° 94° (E) 12:46:20 437.405
DANDE 21 Nov 12:47:46 12:48:17 10° 94° (E) 12:48:46 436.750
SWISSCUBE 21 Nov 12:47:50 12:51:38 23° 95° (E) 12:55:25 437.505
ITAMSAT 1 21 Nov 12:54:53 12:59:32 34° 68° (ENE) 13:04:11 435.822/435.867
Gurwin Techsat 1B 21 Nov 12:57:32 13:01:22 21° 64° (ENE) 13:05:13 435.225
AUBIESAT-1 21 Nov 13:06:01 13:10:45 46° 104° (ESE) 13:15:25 437.475
M-CUBED/EXP-1 PRIME 21 Nov 13:07:26 13:12:16 53° 104° (ESE) 13:17:02 437.505
BEESAT 21 Nov 13:19:29 13:24:06 45° 99° (E) 13:28:40 436.000
YUBILEINY 21 Nov 13:26:02 13:34:04 39° 74° (ENE) 13:42:01 435.215
KKS-1 21 Nov 13:35:11 13:37:01 12° 91° (E) 13:38:51 437.445
HORYU 2 21 Nov 13:45:30 13:48:55 22° 67° (ENE) 13:52:22 437.375
Oscar 19 21 Nov 13:53:16 13:57:31 26° 265° (W) 14:01:47 437.125/150
SO-50 21 Nov 13:58:07 14:03:01 86° 59° (ENE) 14:07:55 436.795
ITUPSAT 1 21 Nov 14:11:54 14:16:35 52° 288° (WNW) 14:21:13 437.325
SWISSCUBE 21 Nov 14:25:12 14:29:33 35° 290° (WNW) 14:33:52 437.505
CUSAT 1 21 Nov 14:26:36 14:28:25 15° 283° (WNW) 14:30:06 437.405
DANDE 21 Nov 14:29:21 14:31:37 18° 282° (WNW) 14:33:39 436.750
ITAMSAT 1 21 Nov 14:34:34 14:39:00 28° 264° (W) 14:43:27 435.822/435.867
Gurwin Techsat 1B 21 Nov 14:35:49 14:40:57 49° 260° (W) 14:46:06 435.225
STARS 21 Nov 14:39:54 14:44:07 44° 99° (E) 14:48:18 437.465
AO-7 21 Nov 14:40:03 14:47:45 45° 63° (ENE) 14:55:30 29.400- 29.500
AUBIESAT-1 21 Nov 14:41:45 14:45:23 21° 299° (WNW) 14:49:01 437.475
M-CUBED/EXP-1 PRIME 21 Nov 14:43:27 14:46:53 19° 300° (WNW) 14:50:19 437.505
RS-15 21 Nov 14:55:48 15:02:06 17° 99° (E) 15:08:20 29.354- 29.394
BEESAT 21 Nov 14:58:17 15:01:34 19° 295° (WNW) 15:04:51 436.000
KKS-1 21 Nov 15:09:39 15:14:00 55° 286° (WNW) 15:18:19 437.445
HORYU 2 21 Nov 15:21:29 15:25:25 31° 263° (W) 15:29:23 437.375
YUBILEINY 21 Nov 15:22:50 15:30:51 43° 273° (W) 15:38:49 435.215
O/OREOS (USA 219) 21 Nov 15:31:48 15:33:44 13° 54° (NE) 15:35:40 437.305
VERMONT LUNAR 21 Nov 15:40:54 15:43:38 20° 148° (SSE) 15:46:23 437.305
SO-50 21 Nov 15:42:13 15:42:52 10° 254° (WSW) 15:43:30 436.795
MaSat-1 21 Nov 15:42:56 15:45:45 28° 111° (ESE) 15:48:21 437.345
JAS-2 21 Nov 15:52:41 15:59:33 42° 67° (ENE) 16:06:47 435.910
STARS 21 Nov 16:17:32 16:20:14 16° 295° (WNW) 16:22:55 437.465
AO-7 21 Nov 16:32:57 16:40:32 40° 261° (W) 16:48:13 29.400- 29.500
Cubesat XI-IV 21 Nov 16:34:39 16:38:39 22° 64° (ENE) 16:42:39 437.490
PHONESAT 2.4 21 Nov 16:46:49 16:50:19 40° 155° (SSE) 16:53:49 2401.200-2431.200
RS-15 21 Nov 17:01:39 17:12:38 83° 118° (ESE) 17:23:36 29.354- 29.394
PRISM 21 Nov 17:06:21 17:07:06 10° 91° (E) 17:07:51 437.425
O/OREOS (USA 219) 21 Nov 17:09:10 17:13:36 66° 251° (WSW) 17:18:02 437.305
MOZHAYETS 4 21 Nov 17:14:24 17:19:05 84° 103° (ESE) 17:23:45
CUTE-I 21 Nov 17:16:05 17:21:15 50° 71° (ENE) 17:26:26 437.470
VERMONT LUNAR 21 Nov 17:18:11 17:21:48 76° 163° (SSE) 17:25:27 437.305
MaSat-1 21 Nov 17:19:24 17:20:28 11° 302° (WNW) 17:21:30 437.345
JAS-2 21 Nov 17:37:36 17:44:27 41° 265° (W) 17:51:45 435.910
Cubesat XI-IV 21 Nov 18:13:13 18:18:23 47° 260° (W) 18:23:34 437.490
PHONESAT 2.4 21 Nov 18:25:18 18:29:02 76° 351° (N) 18:32:45 2401.200-2431.200
HO-68 21 Nov 18:34:32 18:38:55 18° 56° (NE) 18:43:17 435.675
PRISM 21 Nov 18:38:50 18:43:02 60° 286° (WNW) 18:47:11 437.425
CUBESAT XI-V 21 Nov 18:41:41 18:46:13 49° 99° (E) 18:50:42 437.345
STRAND 1 21 Nov 18:50:54 18:55:57 56° 101° (E) 19:00:56 437.568
VERMONT LUNAR 21 Nov 18:56:47 19:00:24 65° 360° (N) 19:04:02 437.305
CUTE-I 21 Nov 18:57:48 19:01:34 19° 267° (W) 19:05:21 437.470
BRITE-PL 21 Nov 19:10:03 19:13:00 16° 66° (ENE) 19:15:49 437.365/2234.400
GONETS M04 21 Nov 19:15:13 19:23:33 44° 75° (ENE) 19:31:47
RS-15 21 Nov 19:16:56 19:26:18 32° 323° (NW) 19:35:47 29.354- 29.394
AIST 1 21 Nov 19:22:01 19:25:05 19° 87° (E) 19:28:10
CANX-2 21 Nov 19:27:13 19:30:21 21° 68° (ENE) 19:33:29 2200.000
AAUSAT CUBESAT 2 21 Nov 19:34:01 19:36:16 14° 66° (ENE) 19:38:32 437.432
PCSat 21 Nov 19:42:22 19:46:39 24° 107° (ESE) 19:50:57 145.827
COMPASS 1 21 Nov 19:44:48 19:47:59 21° 68° (ENE) 19:51:10 437.405
CINEMA 3 21 Nov 20:00:04 20:02:27 14° 66° (ENE) 20:04:48 145.822/145.860
CUTE 1.7 & AOD 2 21 Nov 20:01:30 20:05:31 45° 73° (ENE) 20:09:33 437.475
PHONESAT 2.4 21 Nov 20:04:17 20:08:00 74° 8° (N) 20:11:43 2401.200-2431.200
DELFI C3 21 Nov 20:04:17 20:06:10 13° 65° (ENE) 20:08:04 145.870
UKube-1 21 Nov 20:08:02 20:10:58 18° 66° (ENE) 20:13:55 .
CUBEBUG 2 21 Nov 20:08:39 20:09:21 10° 64° (ENE) 20:10:03 437.445
UWE-3 21 Nov 20:18:20 20:19:49 12° 64° (ENE) 20:21:17 435.000/436.395/437.385
HO-68 21 Nov 20:18:26 20:25:38 90° 257° (WSW) 20:32:53 435.675
CUBESAT XI-V 21 Nov 20:20:19 20:23:15 17° 295° (WNW) 20:26:09 437.345
Oscar 11 21 Nov 20:22:22 20:25:56 26° 69° (ENE) 20:29:31 145.826/435.025
DOVE 4 21 Nov 20:23:00 20:27:31 43° 73° (ENE) 20:31:47 437.250
STRAND 1 21 Nov 20:31:24 20:34:39 17° 297° (WNW) 20:37:52 437.568
VERMONT LUNAR 21 Nov 20:35:22 20:39:01 77° 197° (SSW) 20:42:38 437.305
DX 1 21 Nov 20:37:22 20:41:25 38° 71° (ENE) 20:45:29 434.975-435.025
SEEDS 21 Nov 20:40:38 20:44:48 70° 259° (WSW) 20:49:00 437.485
GOMX 1 21 Nov 20:42:08 20:47:09 88° 256° (WSW) 20:51:50 467.674
SHINDAISAT 21 Nov 20:43:32 20:45:05 20° 244° (WSW) 20:46:36 437.305
BRITE-PL 21 Nov 20:45:54 20:51:06 60° 259° (W) 20:55:56 437.365/2234.400
VELOX 1 21 Nov 20:47:23 20:49:59 15° 65° (ENE) 20:52:35 145.980
BEESAT 3 21 Nov 20:58:13 21:02:08 47° 116° (ESE) 21:06:07 437.485
AIST 1 21 Nov 20:58:31 21:02:28 33° 283° (WNW) 21:06:28
ZACube-1 21 Nov 21:01:51 21:05:34 30° 71° (ENE) 21:09:15 437.345
CANX-2 21 Nov 21:02:22 21:06:05 31° 263° (W) 21:09:51 2200.000
AAUSAT CUBESAT 2 21 Nov 21:07:36 21:11:34 44° 261° (W) 21:15:34 437.432
AISAT 21 Nov 21:09:14 21:12:58 26° 69° (ENE) 21:16:43 437.250
BEESAT 2 21 Nov 21:09:32 21:13:33 57° 117° (ESE) 21:17:39 435.950
GONETS M04 21 Nov 21:12:15 21:20:12 39° 274° (W) 21:28:06
COMPASS 1 21 Nov 21:19:56 21:23:33 28° 264° (W) 21:27:11 437.405
HUMSAT D 21 Nov 21:21:30 21:25:08 30° 71° (ENE) 21:28:44 437.325/437.525
AIST 2 21 Nov 21:22:41 21:26:34 38° 115° (ESE) 21:30:32 435.215
PCSat 21 Nov 21:24:37 21:29:46 44° 304° (NW) 21:34:57 145.827
CINEMA 3 21 Nov 21:34:54 21:39:18 50° 260° (W) 21:43:32 145.822/145.860
DELFI C3 21 Nov 21:37:08 21:41:03 48° 261° (W) 21:45:01 145.870
RS-15 21 Nov 21:37:20 21:43:47 17° 358° (N) 21:50:19 29.354- 29.394
FUNcube-1 21 Nov 21:37:39 21:41:55 79° 77° (ENE) 21:46:07 145.935
CUTE 1.7 & AOD 2 21 Nov 21:39:35 21:41:41 14° 268° (W) 21:43:47 437.475
CUBEBUG 1 21 Nov 21:40:52 21:44:07 20° 67° (ENE) 21:47:21 437.445
CUBEBUG 2 21 Nov 21:41:12 21:45:32 68° 259° (WSW) 21:49:46 437.445
50 SAT 21 Nov 21:42:09 21:45:59 42° 73° (ENE) 21:49:49 437.505
UKube-1 21 Nov 21:42:45 21:46:50 39° 261° (W) 21:50:56 .
PHONESAT 2.4 21 Nov 21:43:12 21:46:45 43° 204° (SSW) 21:50:16 2401.200-2431.200
UWE-3 21 Nov 21:51:38 21:55:53 59° 259° (W) 22:00:04 435.000/436.395/437.385
ANTELSAT 21 Nov 21:57:31 22:00:39 19° 94° (E) 22:03:48 437.575/2403.000
Oscar 11 21 Nov 21:58:30 22:02:02 25° 265° (W) 22:05:35 145.826/435.025
DOVE 4 21 Nov 22:02:16 22:05:25 17° 266° (W) 22:08:27 437.250
ESTCUBE 1 21 Nov 22:03:23 22:07:32 36° 71° (ENE) 22:11:43 437.505/2401.250
NANOSAT C BR1 21 Nov 22:06:05 22:08:29 15° 93° (E) 22:10:52 145.865
HO-68 21 Nov 22:10:32 22:14:10 14° 270° (W) 22:17:50 435.675
VERMONT LUNAR 21 Nov 22:14:26 22:17:11 20° 212° (SSW) 22:19:56 437.305
DX 1 21 Nov 22:14:47 22:17:47 18° 266° (W) 22:20:47 434.975-435.025
QB50P1 21 Nov 22:14:47 22:17:47 19° 94° (E) 22:20:46 145.935-145.965
VELOX 1 21 Nov 22:21:48 22:26:09 50° 260° (W) 22:30:31 145.980
BEESAT 3 21 Nov 22:37:47 22:40:37 18° 314° (NW) 22:43:29 437.485
POPSAT HIP 1 21 Nov 22:38:14 22:42:06 34° 98° (E) 22:45:57 437.405
ZACube-1 21 Nov 22:38:46 22:41:58 21° 265° (W) 22:45:09 437.345
AISAT 21 Nov 22:45:42 22:49:31 27° 264° (W) 22:53:21 437.250
BEESAT 2 21 Nov 22:49:40 22:52:12 16° 315° (NW) 22:54:46 435.950
BUGSAT 1 21 Nov 22:50:01 22:53:52 38° 98° (E) 22:57:39 437.445
TIGRISAT 21 Nov 22:54:04 22:58:28 80° 102° (ESE) 23:02:56 435.000
HUMSAT D 21 Nov 22:57:54 23:00:58 20° 266° (W) 23:04:02 437.325/437.525
AIST 2 21 Nov 23:02:01 23:05:20 22° 312° (NW) 23:08:41 435.215
UNISAT 6 21 Nov 23:05:01 23:09:25 76° 284° (WNW) 23:13:55 437.425
POLYITAN 1 21 Nov 23:08:32 23:12:47 83° 103° (ESE) 23:17:00 437.675
QB50P2 21 Nov 23:12:32 23:16:47 89° 283° (WNW) 23:21:01 145.880/145.840
CUBEBUG 1 21 Nov 23:16:08 23:20:14 36° 262° (W) 23:24:21 437.445
50 SAT 21 Nov 23:19:32 23:21:31 13° 268° (W) 23:23:30 437.505
CUSAT 1 21 Nov 23:21:24 23:24:06 16° 76° (ENE) 23:27:15 437.405
DUCHIFAT 1 21 Nov 23:21:47 23:26:00 70° 285° (WNW) 23:30:10 145.980
SPROUT 21 Nov 23:23:04 23:27:18 56° 74° (ENE) 23:31:33 437.525
DANDE 21 Nov 23:26:42 23:28:59 14° 76° (ENE) 23:31:33 436.750
TISAT 1 21 Nov 23:28:02 23:32:19 77° 76° (ENE) 23:36:36 437.305
ANTELSAT 21 Nov 23:33:30 23:37:32 37° 288° (WNW) 23:41:40 437.575/2403.000
ISS 21 Nov 23:40:11 23:41:03 11° 128° (SE) 23:41:55 145.825
NANOSAT C BR1 21 Nov 23:40:35 23:44:34 42° 288° (WNW) 23:48:31 145.865
ESTCUBE 1 21 Nov 23:41:11 23:44:31 20° 266° (W) 23:47:51 437.505/2401.250
ITUPSAT 1 21 Nov 23:41:44 23:44:46 17° 64° (ENE) 23:47:47 437.325
QB50P1 21 Nov 23:49:58 23:53:45 33° 289° (WNW) 23:57:31 145.935-145.965
RS-15 21 Nov 23:52:18 00:01:35 29° 34° (NE) 00:11:07 29.354- 29.394
SWISSCUBE 21 Nov 23:53:39 23:57:28 24° 67° (ENE) 00:01:18 437.505
AUBIESAT-1 21 Nov 23:54:51 23:58:33 45° 67° (ENE) 00:02:37 437.475
M-CUBED/EXP-1 PRIME 21 Nov 23:56:39 00:00:24 52° 68° (ENE) 00:04:32 437.505
POPSAT HIP 1 22 Nov 00:14:50 00:17:45 19° 293° (WNW) 00:20:40 437.405
BEESAT 22 Nov 00:24:54 00:29:27 45° 72° (ENE) 00:34:02 436.000
BUGSAT 1 22 Nov 00:26:32 00:29:02 16° 294° (WNW) 00:31:32 437.445
Oscar 19 22 Nov 00:28:00 00:30:20 13° 91° (E) 00:32:40 437.125/150
KKS-1 22 Nov 00:33:50 00:34:57 11° 62° (ENE) 00:36:04 437.445
SPROUT 22 Nov 01:02:15 01:03:43 12° 269° (W) 01:05:12 437.525
CUSAT 1 22 Nov 01:02:59 01:07:07 47° 263° (W) 01:12:38 437.405
DANDE 22 Nov 01:08:20 01:12:20 48° 262° (W) 01:17:42 436.750
ITAMSAT 1 22 Nov 01:10:50 01:12:59 13° 90° (E) 01:15:08 435.822/435.867
ISS 22 Nov 01:14:00 01:17:16 71° 323° (NW) 01:20:33 145.825
ITUPSAT 1 22 Nov 01:17:32 01:22:13 52° 260° (W) 01:26:56 437.325
MaSat-1 22 Nov 01:23:31 01:25:35 27° 62° (ENE) 01:27:40 437.345
SWISSCUBE 22 Nov 01:30:47 01:35:08 34° 263° (W) 01:39:31 437.505
AUBIESAT-1 22 Nov 01:32:01 01:33:55 13° 265° (W) 01:35:53 437.475
M-CUBED/EXP-1 PRIME 22 Nov 01:34:43 01:35:55 11° 266° (W) 01:37:09 437.505
STARS 22 Nov 01:36:09 01:40:09 34° 71° (ENE) 01:44:08 437.465
JUGNU 22 Nov 02:01:28 02:02:26 10° 173° (S) 02:03:24 437.505
BEESAT 22 Nov 02:04:20 02:07:30 18° 267° (W) 02:10:41 436.000
RS-15 22 Nov 02:04:25 02:15:44 86° 59° (ENE) 02:27:33 29.354- 29.394
Oscar 19 22 Nov 02:05:00 02:10:07 69° 286° (WNW) 02:15:15 437.125/150
KKS-1 22 Nov 02:06:31 02:10:59 72° 258° (WSW) 02:15:27 437.445
YUBILEINY 22 Nov 02:25:04 02:33:20 47° 88° (E) 02:41:35 435.215
AO-7 22 Nov 02:45:44 02:49:18 13° 89° (E) 02:52:52 29.400- 29.500
ITAMSAT 1 22 Nov 02:47:48 02:52:58 71° 286° (WNW) 02:58:06 435.822/435.867
ISS 22 Nov 02:52:26 02:54:25 15° 341° (NNW) 02:56:23 145.825
Gurwin Techsat 1B 22 Nov 02:53:05 02:58:24 75° 102° (ESE) 03:03:42 435.225
STARS 22 Nov 03:13:28 03:16:42 20° 266° (W) 03:19:56 437.465
HORYU 2 22 Nov 03:13:47 03:18:11 53° 100° (E) 03:22:34 437.375
JUGNU 22 Nov 03:48:50 03:50:32 11° 184° (S) 03:52:14 437.505
SRMSAT 22 Nov 03:51:07 03:52:42 11° 175° (S) 03:54:17 437.500
SO-50 22 Nov 04:12:05 04:16:11 36° 114° (ESE) 04:20:24 436.795
MOZHAYETS 4 22 Nov 04:15:08 04:19:39 67° 75° (ENE) 04:24:15
RS-15 22 Nov 04:18:38 04:26:45 23° 258° (WSW) 04:35:09 29.354- 29.394
YUBILEINY 22 Nov 04:22:20 04:30:15 36° 287° (WNW) 04:38:12 435.215
PCSat 22 Nov 04:31:15 04:34:55 18° 46° (NE) 04:38:34 145.827
AO-7 22 Nov 04:34:51 04:43:16 78° 106° (ESE) 04:51:37 29.400- 29.500
Gurwin Techsat 1B 22 Nov 04:35:02 04:37:42 14° 299° (WNW) 04:40:22 435.225
JAS-2 22 Nov 04:49:24 04:56:03 38° 95° (E) 05:01:58 435.910
HORYU 2 22 Nov 04:52:00 04:54:24 14° 296° (WNW) 04:56:49 437.375
BEESAT 3 22 Nov 05:19:46 05:23:07 23° 49° (NE) 05:26:26 437.485
PRISM 22 Nov 05:28:17 05:32:28 85° 76° (ENE) 05:36:43 437.425
BEESAT 2 22 Nov 05:31:21 05:34:56 26° 50° (NE) 05:38:29 435.950
CUTE-I 22 Nov 05:35:18 05:39:22 22° 94° (E) 05:43:23 437.470
SRMSAT 22 Nov 05:39:44 05:40:57 11° 186° (S) 05:42:11 437.500
O/OREOS (USA 219) 22 Nov 05:42:45 05:45:29 16° 100° (E) 05:48:13 437.305
CUBESAT XI-V 22 Nov 05:43:56 05:48:21 41° 72° (ENE) 05:52:48 437.345
AIST 2 22 Nov 05:46:16 05:49:31 20° 47° (NE) 05:52:44 435.215
SO-50 22 Nov 05:53:02 05:56:48 25° 312° (NW) 06:00:41 436.795
MOZHAYETS 4 22 Nov 05:56:18 05:57:20 11° 271° (W) 05:58:22
STRAND 1 22 Nov 06:05:27 06:10:34 72° 74° (ENE) 06:15:43 437.568
ISS 22 Nov 06:07:46 06:10:00 17° 22° (NNE) 06:12:14 145.825
PCSat 22 Nov 06:13:29 06:18:54 72° 245° (WSW) 06:24:16 145.827
AO-7 22 Nov 06:28:55 06:35:11 24° 305° (NW) 06:41:27 29.400- 29.500
Cubesat XI-IV 22 Nov 06:31:37 06:36:58 77° 103° (ESE) 06:42:16 437.490
JAS-2 22 Nov 06:34:24 06:40:59 38° 295° (WNW) 06:46:54 435.910
BEESAT 3 22 Nov 06:57:36 07:01:25 34° 246° (WSW) 07:05:11 437.485
AIST 1 22 Nov 07:06:46 07:11:04 51° 80° (E) 07:15:18
BEESAT 2 22 Nov 07:09:34 07:13:12 29° 247° (WSW) 07:16:47 435.950
CUTE-I 22 Nov 07:14:34 07:19:36 44° 290° (WNW) 07:24:35 437.470
O/OREOS (USA 219) 22 Nov 07:20:12 07:24:29 43° 295° (WNW) 07:28:47 437.305
CUBESAT XI-V 22 Nov 07:22:40 07:25:57 19° 267° (W) 07:29:15 437.345
AIST 2 22 Nov 07:24:16 07:28:20 42° 245° (WSW) 07:32:19 435.215
ISS 22 Nov 07:43:43 07:47:02 88° 220° (SW) 07:50:21 145.825
STRAND 1 22 Nov 07:48:12 07:50:15 12° 270° (W) 07:52:18 437.568
HO-68 22 Nov 07:49:23 07:53:57 18° 91° (E) 07:58:29 435.675
Cubesat XI-IV 22 Nov 08:13:48 08:16:21 14° 300° (WNW) 08:18:54 437.490
GONETS M04 22 Nov 08:14:17 08:22:40 52° 89° (E) 08:31:07
DOVE 4 22 Nov 08:26:14 08:26:58 10° 91° (E) 08:27:43 437.250
SEEDS 22 Nov 08:27:28 08:30:44 21° 94° (E) 08:33:59 437.485
GOMX 1 22 Nov 08:46:02 08:49:30 25° 96° (E) 08:52:59 467.674
AIST 1 22 Nov 08:46:31 08:48:12 12° 276° (W) 08:49:52
CANX-2 22 Nov 08:48:43 08:52:52 47° 99° (E) 08:57:00 2200.000
BRITE-PL 22 Nov 08:52:27 08:56:25 42° 99° (E) 09:00:22 437.365/2234.400
AAUSAT CUBESAT 2 22 Nov 08:52:42 08:56:27 30° 97° (E) 09:00:11 437.432
ANTELSAT 22 Nov 08:56:57 08:59:19 15° 65° (ENE) 09:01:42 437.575/2403.000
NANOSAT C BR1 22 Nov 08:59:57 09:00:55 11° 63° (ENE) 09:01:53 145.865
COMPASS 1 22 Nov 09:04:42 09:08:48 48° 99° (E) 09:12:54 437.405
QB50P1 22 Nov 09:08:00 09:10:06 14° 65° (ENE) 09:12:13 145.935-145.965
DELFI C3 22 Nov 09:19:43 09:23:10 25° 96° (E) 09:26:36 145.870
CUTE 1.7 & AOD 2 22 Nov 09:23:53 09:28:10 72° 284° (WNW) 09:32:26 437.475
FUNcube-1 22 Nov 09:28:51 09:31:28 16° 93° (E) 09:34:05 145.935
POPSAT HIP 1 22 Nov 09:30:42 09:34:07 24° 69° (ENE) 09:37:32 437.405
CINEMA 3 22 Nov 09:31:10 09:35:05 37° 98° (E) 09:39:04 145.822/145.860
UKube-1 22 Nov 09:31:55 09:35:57 36° 98° (E) 09:39:56 .
CUBEBUG 2 22 Nov 09:34:10 09:37:41 25° 96° (E) 09:41:15 437.445
HO-68 22 Nov 09:35:07 09:42:19 78° 288° (WNW) 09:49:27 435.675
BUGSAT 1 22 Nov 09:39:32 09:43:02 25° 69° (ENE) 09:46:31 437.445
UWE-3 22 Nov 09:43:17 09:46:56 28° 97° (E) 09:50:36 435.000/436.395/437.385
Oscar 11 22 Nov 09:46:17 09:50:36 63° 101° (E) 09:54:54 145.826/435.025
TIGRISAT 22 Nov 09:52:01 09:56:14 59° 74° (ENE) 10:00:25 435.000
POLYITAN 1 22 Nov 10:00:44 10:04:54 53° 74° (ENE) 10:09:03 437.675
DOVE 4 22 Nov 10:01:02 10:05:05 55° 285° (WNW) 10:09:13 437.250
SEEDS 22 Nov 10:02:51 10:06:35 30° 289° (WNW) 10:10:18 437.485
DX 1 22 Nov 10:02:57 10:07:19 86° 103° (ESE) 10:11:39 434.975-435.025
UNISAT 6 22 Nov 10:03:10 10:07:27 82° 76° (ENE) 10:11:45 437.425
QB50P2 22 Nov 10:04:28 10:08:40 58° 74° (ENE) 10:12:52 145.880/145.840
GONETS M04 22 Nov 10:12:03 10:19:45 33° 289° (WNW) 10:27:32
DUCHIFAT 1 22 Nov 10:13:16 10:17:32 73° 76° (ENE) 10:21:47 145.980
VELOX 1 22 Nov 10:14:15 10:18:16 33° 98° (E) 10:22:14 145.980
GOMX 1 22 Nov 10:24:17 10:27:33 23° 291° (WNW) 10:30:50 467.674
CANX-2 22 Nov 10:26:03 10:28:24 15° 294° (WNW) 10:30:45 2200.000
ZACube-1 22 Nov 10:27:31 10:31:44 79° 102° (ESE) 10:36:01 437.345
AAUSAT CUBESAT 2 22 Nov 10:28:45 10:31:57 21° 292° (WNW) 10:35:08 437.432
ANTELSAT 22 Nov 10:31:37 10:35:45 46° 261° (W) 10:39:52 437.575/2403.000
NANOSAT C BR1 22 Nov 10:31:59 10:36:14 67° 259° (WSW) 10:40:29 145.865
BRITE-PL 22 Nov 10:32:25 10:34:35 14° 295° (WNW) 10:36:46 437.365/2234.400
AISAT 22 Nov 10:37:33 10:41:58 63° 101° (ESE) 10:46:19 437.250
QB50P1 22 Nov 10:41:24 10:45:33 51° 260° (W) 10:49:44 145.935-145.965
COMPASS 1 22 Nov 10:41:53 10:44:08 14° 295° (WNW) 10:46:22 437.405
HUMSAT D 22 Nov 10:42:33 10:46:42 70° 102° (ESE) 10:50:52 437.325/437.525
DELFI C3 22 Nov 10:55:03 10:58:22 24° 291° (WNW) 11:01:41 145.870
50 SAT 22 Nov 10:59:30 11:03:34 87° 283° (WNW) 11:07:38 437.505
FUNcube-1 22 Nov 11:04:03 11:07:58 39° 288° (WNW) 11:11:55 145.935
SHINDAISAT 22 Nov 11:04:48 11:06:39 70° 298° (WNW) 11:08:33 437.305
POPSAT HIP 1 22 Nov 11:06:16 11:09:54 27° 264° (W) 11:13:33 437.405
CUBEBUG 1 22 Nov 11:06:26 11:10:38 44° 99° (E) 11:14:46 437.445
UKube-1 22 Nov 11:08:47 11:11:50 19° 294° (WNW) 11:14:53 .
CINEMA 3 22 Nov 11:09:20 11:12:02 17° 293° (WNW) 11:14:45 145.822/145.860
CUBEBUG 2 22 Nov 11:10:54 11:14:18 25° 290° (WNW) 11:17:46 437.445
SPROUT 22 Nov 11:14:03 11:15:02 11° 90° (E) 11:16:01 437.525
BUGSAT 1 22 Nov 11:14:51 11:18:26 26° 264° (W) 11:22:01 437.445
TISAT 1 22 Nov 11:16:23 11:18:27 13° 92° (E) 11:20:30 437.305
UWE-3 22 Nov 11:20:03 11:23:21 23° 291° (WNW) 11:26:41 435.000/436.395/437.385
Oscar 11 22 Nov 11:24:43 11:26:13 12° 297° (WNW) 11:27:43 145.826/435.025
HO-68 22 Nov 11:25:16 11:28:51 15° 306° (NW) 11:32:27 435.675
TIGRISAT 22 Nov 11:32:32 11:33:21 10° 269° (W) 11:34:09 435.000
ESTCUBE 1 22 Nov 11:33:58 11:38:33 85° 284° (WNW) 11:43:04 437.505/2401.250
POLYITAN 1 22 Nov 11:39:28 11:41:09 12° 269° (W) 11:42:49 437.675
Oscar 19 22 Nov 11:43:30 11:46:52 18° 64° (ENE) 11:50:14 437.125/150
QB50P2 22 Nov 11:43:53 11:44:56 11° 269° (W) 11:46:00 145.880/145.840
VELOX 1 22 Nov 11:51:19 11:54:39 21° 293° (WNW) 11:57:58 145.980
